Regional Weather Roundup
Issued by NWS New Orleans/Baton Rouge, LA

Home | Current Version | Previous Version | Text Only | Print | Product List | Glossary On
Versions: 1 2 3 4 5 6 7 8 9 10 11 12 13 14 15 16 17 18 19 20 21 22 23 24 25 26 27 28 29 30 31 32 33 34 35 36 37 38 39 40 41 42 43 44 45 46 47 48 49 50
000
ASUS44 KLIX 310201
RWRLIX
NEW ORLEANS REGIONAL WEATHER ROUNDUP
NATIONAL WEATHER SERVICE NEW ORLEANS LA
800 PM CST FRI JAN 30 2015

NOTE: "FAIR" INDICATES FEW OR NO CLOUDS BELOW 12,000 FEET WITH NO
      SIGNIFICANT WEATHER AND/OR OBSTRUCTIONS TO VISIBILITY.
      SKY/WX - SKY CONDITION AND SIGNIFICANT WEATHER.
      TMP - AIR TEMPERATURE.     DP    - DEWPOINT TEMPERATURE.
      RH  - RELATIVE HUMIDITY.   PRES  - PRESSURE.
      HI  - HEAT INDEX.          WCI   - WIND CHILL INDEX.

*  THESE STATIONS ARE NOT NWS OR FAA STATIONS AND ARE NOT UNDER
   NWS QUALITY CONTROL.

LAZ038-040-048-061>063-065>067-069-310300-
SOUTHEAST LOUISIANA

CITY           SKY/WX    TMP DP  RH WIND       PRES   REMARKS
N.O. AUDUBON     N/A     52  42  68 MISG        N/A
N.O. INTL ARPT MOCLDY    51  36  56 N8        30.34S
N.O. LAKEFRONT PTCLDY    55  43  63 N10       30.35R
N.O. DOWNTOWN* NOT AVBL
SLIDELL        PTCLDY    44  39  82 N3        30.35R
BATON ROUGE    PTCLDY    47  35  63 CALM      30.35S
BOOTHVILLE     PTCLDY    49  42  77 CALM      30.34R
BELLE CHASSE   MOCLDY    51  38  60 CALM      30.34R
BOGALUSA*        N/A     43  38  80 CALM      30.37R
GALLIANO*      NOT AVBL
NEW ROADS*     NOT AVBL
GONZALES*      NOT AVBL
HAMMOND*       NOT AVBL
HOUMA*         PTCLDY    48  37  64 NE6       30.34R
PORT FOURCHON* CLEAR     55  43  62 NE9       30.36R

$$

MSZ070-080>082-310300-
SOUTHERN MISSISSIPPI

CITY           SKY/WX    TMP DP  RH WIND       PRES   REMARKS
MCCOMB         MOCLDY    50  31  48 N6        30.36R
GULFPORT       MOCLDY    51  33  50 N6        30.34R
BILOXI         MOCLDY    51  35  55 N3        30.34R
PASCAGOULA     PTCLDY    46  33  60 N6        30.34R
STENNIS ARPT*  CLEAR     43  36  75 CALM      30.36R

$$

COASTAL OBSERVATIONS
LAKE AND NEARSHORE STATIONS

STATION/POSITION TIME  TEMP    WIND        PRES    WAVE
                       AIR SEA DIR/SP/G            HT/PER
                 (UTC) (F)     (DEG/KT/KT) (MB)    (FT/S)
PASCAGOULA       0123   54      20/  7/ 10 1026.6
WAVELAND YACHT   0123   55      10/  8/  9 1026.4
GRAND ISLE       0123   57 62   40/  8/ 11 1027.1
SOUTHWEST PASS   0123   50 46   30/  9/ 10 1026.8
NEW CANAL        0123   56 56   20/ 10/ 12 1027.7
SHELL BEACH      0123   56 58  360/  8/  9 1027.0

OFFSHORE STATIONS

STATION/POSITION TIME  TEMP    WIND        PRES    WAVE
                       AIR SEA DIR/SP/G            HT/PER
                 (UTC) (F)     (DEG/KT/KT) (MB)    (FT/S)
64 S DAUPHIN ISL 0139   60 68   20/ 17/ 21 1026.5    3/ 5

$$




USA.gov is the U.S. government's official web portal to all federal, state and local government web resources and services.